Regional Weather Roundup
Issued by NWS

Home | Current Version | Previous Version | Text Only | Print | Product List | Glossary Off
Versions: 1 2 3 4 5 6 7 8 9 10 11 12 13 14 15 16 17 18 19 20 21 22 23 24 25 26 27 28 29 30 31 32 33 34 35 36 37 38 39 40 41 42 43 44 45 46 47 48 49 50

000
ASUS43 KDTX 281301
RWRMI
MICHIGAN HOURLY REGIONAL WEATHER ROUNDUP
NATIONAL WEATHER SERVICE DETROIT/PONTIAC MI
900 AM EDT SAT MAR 28 2015

NOTE: "FAIR" INDICATES FEW OR NO CLOUDS BELOW 12,000 FEET WITH NO
SIGNIFICANT WEATHER AND/OR OBSTRUCTION TO VISIBILITY.

MIZ047>049-052>055-059>063-066>070-074>076-081>083-281400-
SOUTHEAST LOWER MICHIGAN

CITY           SKY/WX    TMP DP  RH WIND       PRES   REMARKS
ADRIAN         SUNNY     18   9  68 N10       30.27R WCI   6
ALMA           SUNNY     17   9  72 NW3       30.29R
ANN ARBOR      CLOUDY    17   7  64 N10       30.26R WCI   5
BAD AXE        CLOUDY    22   9  57 N6        30.26R WCI  14
CARO           MOSUNNY   19  12  74 NW6       30.27R WCI  11
DETROIT CITY   CLOUDY    23  10  57 N10       30.26R WCI  12
DETROIT        PTSUNNY   21   9  59 NW7       30.27R WCI  12
FLINT          MOSUNNY   18   9  68 NW6       30.27R WCI  10
GROSSE ILE     PTSUNNY   21   9  58 N9G17     30.25R WCI  11
HILLSDALE      SUNNY     18   9  69 N9        30.24R WCI   6
HOWELL         SUNNY     17   9  68 NW5       30.25R WCI  10

CITY           SKY/WX    TMP DP  RH WIND       PRES   REMARKS
JACKSON        SUNNY     17   8  67 N6        30.26R WCI   9
LAMBERTVILLE   PTSUNNY   21  10  63 N8        30.27R WCI  12
LANSING        SUNNY     17   7  64 N6        30.28R WCI   9
LAPEER         CLOUDY    19  13  79 N5        30.25R WCI  12
MASON          SUNNY     16   9  71 NW6       30.27R WCI   8
MONROE         MOSUNNY   19  10  68 NW8       30.24R WCI   9
MT. CLEMENS    PTSUNNY   20  10  64 N9        30.23R WCI   9
PONTIAC        PTSUNNY   18   9  68 NW7       30.23R WCI   9
PORT HOPE        N/A     22  10  60 N12       30.25R WCI  10
PORT HURON     MOSUNNY   19   5  53 NE12      30.26R WCI   7
TRI CITIES     SUNNY     20  10  65 N9        30.29R WCI   9
TROY           PTSUNNY   20  11  66 N3        30.27R
SAGINAW HB     SUNNY     19  12  73 NW9       30.28R WCI   9
$$
MIZ043>046-050>051-056>058-064>065-071>073-077>080-281400-
SOUTHWEST LOWER MICHIGAN

CITY           SKY/WX    TMP DP  RH WIND       PRES   REMARKS
BATTLE CREEK   SUNNY     17   7  64 N6        30.27R WCI   9
BENTON HARBOR  SUNNY     16   8  71 CALM      30.31R
BIG RAPIDS     SUNNY     14   7  72 CALM      30.28R
COLDWATER      SUNNY     18  10  70 N5        30.27R WCI  11
FREMONT        FAIR      15   5  64 CALM      30.30R
HOLLAND        SUNNY     19   6  57 NE3       30.32R
GRAND RAPIDS   SUNNY     18   6  59 CALM      30.30R
IONIA          FAIR      17   8  67 N3        30.28R
KALAMAZOO      SUNNY     18   7  62 N3        30.29R
LUDINGTON      SUNNY     16  10  78 E3        30.32S
MARSHALL       SUNNY     16   7  69 CALM      30.27R
MOUNT PLEASANT SUNNY     16   8  70 N3        30.28R
MUSKEGON       SUNNY     18   5  57 CALM      30.32R
SOUTH HAVEN    SUNNY     19   7  60 E6        30.30S WCI  10
$$
MIZ016>042-281400-
NORTHERN LOWER MICHIGAN

CITY           SKY/WX    TMP DP  RH WIND       PRES   REMARKS
ALPENA         SUNNY     14   9  80 W3        30.29R
BEAVER ISLAND  SUNNY     13   8  83 CALM      30.32R
BELLAIRE       SUNNY     10   6  84 CALM      30.34R
CADILLAC       SUNNY     11   4  73 CALM      30.24R
CHARLEVOIX     SUNNY     13  10  85 CALM      30.34R
FRANKFORT      SUNNY     14   5  69 CALM      30.32R
GAYLORD        SUNNY      7   3  84 CALM      30.24R
GRAYLING       SUNNY      9   3  75 W5        30.26S WCI   1
HARBOR SPRINGS SUNNY     10   5  82 SW3       30.31R
HOUGHTON LAKE  SUNNY     12   5  73 CALM      30.26R
MANISTEE       SUNNY     10   5  79 E3        30.32R
OSCODA         SUNNY     17  10  74 NW7       30.27R WCI   8
PELLSTON       SUNNY      9   4  80 CALM      30.31R
ROGERS CITY    SUNNY     16  12  85 W6        30.30R WCI   7
TRAVERSE CITY  SUNNY     13   7  77 CALM      30.31R
$$
MIZ007>008-015-281400-
EASTERN UPPER MICHIGAN

CITY           SKY/WX    TMP DP  RH WIND       PRES   REMARKS
KINROSS        SUNNY      7   5  92 W5        30.28R WCI  -2
MACKINAC ISLAN SUNNY     11   6  81 W5        30.29R WCI   3
NEWBERRY       SUNNY      0  -3  88 SW9       30.27S WCI -15
S. S. MARIE    SUNNY      6   3  87 W5        30.29R WCI  -3
$$
MIZ004>006-011>014-085-281400-
CENTRAL UPPER MICHIGAN

CITY           SKY/WX    TMP DP  RH WIND       PRES   REMARKS
MANISTIQUE     MOSUNNY    8   4  85 CALM      30.31S
ESCANABA       SUNNY      9   3  78 CALM      30.32R
MENOMINEE      SUNNY     14   7  73 CALM      30.31R
SAWYER-GWINN   SUNNY     -6 -13  71 CALM      30.25R
$$
MIZ001>003-009>011-084-281400-
WESTERN UPPER MICHIGAN

CITY           SKY/WX    TMP DP  RH WIND       PRES   REMARKS
IRON MOUNTAIN  SUNNY      5  -1  76 CALM      30.24S
HOUGHTON       SUNNY      2   0  91 CALM      30.23R FOG
COPPER HARBOR    N/A     11   3  70 VRB5      30.26R WCI   3
IRONWOOD       SUNNY      9   9 100 CALM      30.20S
$$

ABBREVIATIONS USED IN REMARKS
   TC - TEMPERATURE IN CELSIUS
  WCI - WIND CHILL INDEX
   HX - HEAT INDEX
  VSB - VISIBILITY



USA.gov is the U.S. government's official web portal to all federal, state and local government web resources and services.